Location: ??
(35.4824°N, 139.4679°E)
Time: 08:25:43
(UTC+00:00)

Cosmos 2058 Rocket - Pass Details

Date: 29 October 2020
Orbit: 610 x 640 km, 82.5° (Epoch: 02 December)

Event Time Altitude Azimuth Distance (km) Brightness Sun altitude
Rises 20:21:00 0° 342° (NNW) 2,937 6.2 -8.9°
Reaches altitude 10° 20:23:26 10° 332° (NNW) 2,020 5.3 -8.4°
Maximum altitude 20:27:24 32° 270° (W) 1,086 3.8 -7.7°
Drops below altitude 10° 20:31:19 10° 207° (SSW) 1,992 5.5 -6.9°
Sets 20:33:42 0° 197° (SSW) 2,888 6.4 -6.4°
